TimeCDT,TemperatureF,Dew PointF,Humidity,Sea Level PressureIn,VisibilityMPH,Wind Direction,Wind SpeedMPH,Gust SpeedMPH,PrecipitationIn,Events,Conditions,WindDirDegrees,DateUTC
12:54 AM,48.0,37.0,66,29.83,9.0,WNW,5.8,-,N/A,,Overcast,290,2014-04-07 05:54:00
1:54 AM,44.1,36.0,73,29.81,9.0,WNW,4.6,-,N/A,,Scattered Clouds,300,2014-04-07 06:54:00
2:54 AM,44.1,37.0,76,29.78,9.0,WNW,6.9,-,N/A,,Clear,290,2014-04-07 07:54:00
3:54 AM,45.0,37.0,74,29.78,10.0,WNW,6.9,-,N/A,,Clear,300,2014-04-07 08:54:00
4:54 AM,46.0,37.0,71,29.79,10.0,WNW,8.1,-,N/A,,Overcast,300,2014-04-07 09:54:00
5:54 AM,46.9,39.0,74,29.81,10.0,WNW,6.9,-,N/A,,Overcast,300,2014-04-07 10:54:00
6:54 AM,46.9,37.9,71,29.82,10.0,NW,4.6,-,N/A,,Overcast,310,2014-04-07 11:54:00
7:54 AM,46.9,37.9,71,29.83,10.0,WSW,3.5,-,N/A,,Mostly Cloudy,250,2014-04-07 12:54:00
8:54 AM,48.9,39.0,69,29.85,9.0,WNW,5.8,-,N/A,,Overcast,290,2014-04-07 13:54:00
9:54 AM,53.1,39.9,61,29.85,10.0,NW,10.4,-,N/A,,Clear,320,2014-04-07 14:54:00
10:54 AM,57.0,42.1,57,29.85,10.0,West,8.1,-,N/A,,Mostly Cloudy,280,2014-04-07 15:54:00
11:54 AM,59.0,43.0,55,29.85,10.0,NW,15.0,-,N/A,,Overcast,310,2014-04-07 16:54:00
12:54 PM,57.9,44.1,60,29.86,10.0,NNW,16.1,-,N/A,,Mostly Cloudy,330,2014-04-07 17:54:00
1:54 PM,57.0,41.0,55,29.85,10.0,NNW,26.5,-,N/A,,Overcast,340,2014-04-07 18:54:00
3:54 PM,60.1,39.9,47,29.84,10.0,North,18.4,28.8,N/A,,Overcast,360,2014-04-07 20:54:00
4:54 PM,59.0,37.0,44,29.85,10.0,North,16.1,-,N/A,,Overcast,350,2014-04-07 21:54:00
5:54 PM,57.9,37.9,47,29.86,10.0,NNW,15.0,-,N/A,,Clear,340,2014-04-07 22:54:00
6:54 PM,57.0,39.0,51,29.90,10.0,NW,23.0,38.0,N/A,,Mostly Cloudy,310,2014-04-07 23:54:00
7:54 PM,52.0,39.0,61,29.91,10.0,WNW,10.4,-,N/A,,Partly Cloudy,300,2014-04-08 00:54:00
8:54 PM,52.0,39.0,61,29.93,10.0,WNW,9.2,-,N/A,,Clear,300,2014-04-08 01:54:00
9:54 PM,51.1,37.9,61,29.95,10.0,WNW,9.2,-,N/A,,Clear,290,2014-04-08 02:54:00
10:54 PM,48.9,37.0,64,29.96,10.0,NW,13.8,-,N/A,,Scattered Clouds,310,2014-04-08 03:54:00
11:54 PM,48.0,37.9,68,29.96,10.0,NW,17.3,24.2,N/A,,Mostly Cloudy,320,2014-04-08 04:54:00